Temp
63 64 65 66 66 66 66 67 68 69 68 67 68 68 68 68 67 67 66 68 68 68 68 67 67 68 68 68 68 68 69 69 69 70 70 69 68 68 67 66 66 66 66 64 63 62 61 60 59 58 57 52
61 62 63 64 64 65 65 66 67 68 67 67 66 66 66 65 64 66 67 67 67 67 66 65 66 66 68 68 69 68 68 68 68 69 70 67 67 66 66 66 66 65 64 64 63 61 60 59 58 57 57 51
60 61 61 62 63 64 64 65 65 65 65 65 64 64 63 63 62 64 64 65 66 66 65 64 64 66 68 68 69 69 68 68 66 68 67 65 65 66 65 66 66 65 64 63 62 61 60 58 57 57 54 51
59 60 60 60 61 62 63 63 64 63 63 63 62 61 61 60 60 61 61 63 63 64 64 62 62 65 67 68 67 67 67 67 67 67 66 65 64 64 65 65 65 64 64 63 62 60 59 57 56 53 50 50
57 59 59 60 60 61 61 62 62 62 62 61 60 60 59 59 59 59 60 61 61 62 60 60 61 64 66 67 66 66 66 65 66 66 65 64 63 63 60 59 60 62 63 62 60 59 57 56 54 51 51 51
54 58 59 60 60 59 60 61 60 61 60 58 59 58 58 57 57 59 59 59 57 58 58 58 59 60 63 66 66 66 66 65 66 67 65 63 63 61 60 58 50 53 58 59 58 56 55 53 50 51 51 51
52 56 58 59 59 60 59 58 57 58 57 58 58 58 58 57 57 58 57 57 57 56 58 57 58 58 62 65 65 66 65 64 65 66 65 64 62 60 58 48 45 48 49 52 56 55 52 50 50 49 51 51
51 54 57 58 58 58 59 59 57 57 57 58 58 57 57 56 55 55 56 55 54 54 56 56 57 58 59 59 61 62 61 63 63 64 65 62 59 54 48 46 45 45 47 47 48 49 50 49 50 51 51 50
49 52 55 56 57 58 58 58 58 57 56 56 56 56 55 54 55 55 55 55 55 54 55 55 55 55 56 56 58 57 53 52 53 53 51 50 48 45 46 46 45 45 46 46 47 48 48 48 48 49 49 48
48 50 50 53 55 56 56 57 56 57 56 56 56 55 55 54 54 54 53 53 54 54 55 54 54 54 53 53 54 55 51 49 49 47 46 47 46 44 44 43 43 43 45 46 45 46 46 47 47 48 48 48
48 48 49 50 52 54 55 55 55 55 55 55 56 55 54 54 54 53 52 53 53 53 54 53 52 52 51 52 51 52 50 47 47 46 46 44 44 43 43 42 41 42 42 44 45 45 46 46 47 47 47 48
47 47 48 48 49 52 53 54 54 54 55 55 55 54 54 54 53 53 52 53 52 53 52 53 52 50 50 50 50 49 50 47 46 46 45 45 44 45 43 43 42 41 42 41 43 43 43 44 47 47 46 46
47 47 46 47 47 48 51 53 54 53 53 53 53 53 53 53 53 53 52 52 52 52 51 50 50 49 49 49 48 49 47 47 45 45 45 45 45 44 44 42 42 42 43 42 42 43 43 43 44 44 44 44
45 46 45 45 45 46 48 49 52 53 53 52 52 52 52 52 53 53 52 52 51 51 50 49 49 49 48 48 48 48 46 45 45 43 44 44 45 44 43 43 43 42 42 43 42 43 44 43 43 43 43 44
44 45 44 44 44 44 45 46 48 50 51 52 51 51 52 51 51 51 52 51 51 51 50 49 48 48 47 47 47 47 46 45 46 45 45 45 44 44 43 42 42 42 43 42 42 42 43 42 43 43 43 43
42 43 44 44 43 43 43 44 44 44 45 47 49 51 51 51 51 50 50 51 50 51 49 49 48 47 47 47 46 46 44 44 44 44 43 43 43 42 42 41 40 40 43 42 42 41 42 42 43 43 43 44
41 42 43 43 42 41 42 42 42 42 42 43 44 46 47 49 50 50 50 50 50 50 49 48 48 47 47 46 46 45 44 43 43 43 42 41 41 41 41 41 39 38 39 40 40 41 42 41 43 43 43 44
40 41 42 42 42 41 40 40 40 40 41 41 41 43 44 44 47 49 50 49 49 48 48 48 48 47 46 46 46 45 43 41 40 41 42 41 41 42 42 41 37 38 40 38 37 38 37 40 40 41 43 43
39 40 41 41 41 40 39 38 38 38 39 39 39 40 41 42 43 44 46 48 48 48 47 47 47 46 46 45 45 43 42 41 40 40 42 41 41 40 38 38 37 37 36 37 39 37 35 38 38 37 38 39
39 39 40 40 41 39 39 38 37 36 37 37 38 38 38 40 41 42 42 44 46 47 47 47 47 46 45 45 44 42 41 41 39 40 39 41 42 41 38 39 38 37 37 36 37 35 35 34 35 36 36 38
37 38 39 39 39 39 38 37 36 35 36 36 35 36 36 37 38 39 40 41 43 45 46 46 46 46 45 44 44 42 40 40 40 39 39 38 41 42 39 40 39 37 36 36 36 36 36 34 35 36 35 35
34 36 38 38 39 39 38 37 37 36 35 34 34 34 34 35 36 37 37 38 39 41 43 45 46 45 45 44 43 41 40 40 39 39 38 37 38 39 40 39 39 38 34 34 34 34 33 33 33 33 35 36
33 34 36 38 37 37 37 37 37 36 35 34 34 33 34 34 34 35 35 36 37 37 39 41 43 45 44 44 42 41 40 39 38 38 38 38 37 38 39 40 39 37 34 33 32 32 31 31 32 33 34 36
31 31 31 32 34 34 35 35 35 36 35 34 33 34 33 33 33 34 34 35 35 35 36 37 38 40 43 43 42 41 39 39 38 37 37 37 37 36 36 37 38 37 36 31 29 33 31 31 30 34 36 35
29 28 28 30 31 31 33 33 34 33 34 34 34 34 34 33 32 33 33 33 33 33 34 35 36 37 38 41 42 41 41 41 39 39 38 37 37 36 35 34 36 37 38 37 36 34 35 34 33 34 37 36
28 28 27 26 28 30 32 32 31 31 32 33 34 34 34 33 33 32 32 32 32 32 33 33 33 34 35 37 38 40 41 41 39 39 38 37 35 37 35 34 34 34 38 34 35 35 33 34 36 37 37 35
27 28 28 27 28 28 28 32 32 32 33 33 32 33 33 33 32 32 31 31 31 30 31 32 32 33 34 34 35 37 39 39 38 38 37 37 35 34 36 34 35 35 37 33 32 33 33 32 34 36 36 36
27 28 28 27 27 28 28 28 30 31 32 31 31 30 32 32 32 32 31 31 30 30 30 30 30 32 32 33 34 34 35 37 37 37 37 37 37 35 33 33 32 35 36 34 33 30 30 30 29 30 34 35
27 28 26 26 26 27 26 27 26 26 26 28 29 29 30 30 31 31 30 31 30 30 29 29 29 30 31 32 32 33 33 34 35 37 37 37 36 35 35 32 33 33 35 35 38 35 29 27 27 28 32 33
27 26 25 25 25 23 24 23 23 22 23 24 25 26 29 29 30 30 30 30 29 29 29 29 29 29 29 30 31 31 32 32 33 33 35 37 36 35 36 34 33 31 34 35 36 37 36 35 33 31 31 33
26 25 25 24 24 24 23 22 23 24 25 24 25 26 26 28 29 29 29 29 29 28 28 29 28 28 29 29 30 31 30 30 31 32 33 35 35 35 36 35 33 32 31 33 33 34 33 32 30 32 32 29
MSLP
1015.57 1015.17 1014.73 1014.29 1013.77 1013.01 1012.49 1012.13 1012.21 1012.45 1012.77 1013.05 1013.13 1013.73 1014.13 1014.57 1014.77 1015.13 1015.37 1015.17 1015.45 1015.69 1016.01 1016.29 1016.13 1016.17 1016.25 1016.09 1016.05 1016.29 1016.49 1016.85 1017.09 1017.13 1017.17 1017.45 1017.89 1018.13 1018.37 1018.45 1018.61 1018.65 1018.73 1018.73 1018.77 1018.85 1018.97 1019.09 1019.29 1019.13 1019.09 1019.25
1015.77 1015.33 1014.81 1014.33 1013.61 1012.61 1011.93 1011.73 1011.85 1012.05 1012.97 1013.29 1013.05 1013.53 1014.17 1014.77 1015.09 1015.33 1015.33 1015.45 1015.53 1015.73 1016.05 1016.33 1016.41 1016.45 1016.37 1016.37 1016.29 1016.21 1016.21 1016.37 1016.65 1017.05 1017.29 1017.61 1017.93 1018.25 1018.37 1018.41 1018.57 1018.73 1018.85 1018.89 1018.89 1018.93 1019.01 1019.21 1019.25 1019.25 1019.17 1019.33
1015.97 1015.49 1015.05 1014.61 1013.97 1013.09 1012.29 1012.09 1012.09 1012.69 1012.97 1013.89 1014.29 1014.09 1014.17 1014.69 1015.13 1015.33 1015.37 1015.69 1015.81 1015.93 1016.21 1016.41 1016.49 1016.53 1016.41 1016.33 1016.41 1016.53 1016.69 1016.69 1016.77 1017.01 1017.45 1017.89 1018.21 1018.29 1018.45 1018.49 1018.57 1018.73 1018.89 1018.97 1019.05 1019.09 1019.13 1019.09 1019.13 1019.41 1019.45 1019.57
1016.29 1015.73 1015.29 1014.97 1014.49 1013.93 1013.29 1012.85 1012.37 1012.85 1013.69 1014.37 1014.73 1014.81 1014.73 1014.81 1015.29 1015.61 1015.77 1015.93 1016.05 1016.17 1016.29 1016.49 1016.57 1016.69 1016.53 1016.49 1016.61 1016.73 1016.93 1017.05 1017.05 1017.17 1017.61 1018.01 1018.33 1018.53 1018.57 1018.65 1018.65 1018.81 1018.93 1019.01 1019.13 1019.21 1019.25 1019.01 1019.25 1019.53 1019.73 1019.77
1016.65 1016.09 1015.65 1015.29 1015.05 1014.61 1013.73 1013.53 1013.89 1013.45 1013.21 1013.97 1014.53 1014.61 1014.89 1015.09 1015.25 1015.53 1016.05 1016.21 1016.37 1016.41 1016.49 1016.77 1016.81 1016.89 1016.85 1016.81 1016.89 1016.97 1017.09 1017.21 1017.25 1017.33 1017.69 1018.05 1018.45 1018.73 1018.81 1019.01 1018.93 1018.97 1019.05 1019.09 1019.17 1019.25 1019.21 1019.13 1019.33 1019.61 1019.69 1019.81
1017.25 1016.53 1015.97 1015.69 1015.53 1015.21 1014.69 1014.01 1014.01 1014.25 1014.25 1014.21 1014.57 1014.81 1014.97 1015.05 1015.53 1015.81 1015.89 1016.17 1016.33 1016.45 1016.57 1016.89 1017.09 1017.21 1017.21 1017.09 1017.01 1017.09 1017.21 1017.37 1017.41 1017.49 1017.73 1018.21 1018.45 1018.77 1018.89 1019.09 1019.21 1019.21 1019.25 1019.29 1019.37 1019.37 1019.29 1019.37 1019.61 1019.65 1019.69 1019.85
1017.77 1017.01 1016.41 1015.93 1015.77 1015.69 1015.41 1015.29 1014.53 1014.61 1014.69 1014.85 1015.13 1015.37 1015.49 1015.61 1015.81 1015.81 1015.89 1016.09 1016.29 1016.41 1016.57 1016.93 1017.33 1017.53 1017.45 1017.37 1017.33 1017.33 1017.45 1017.57 1017.69 1017.77 1018.01 1018.29 1018.57 1018.85 1019.01 1019.29 1019.45 1019.37 1019.33 1019.37 1019.45 1019.53 1019.53 1019.61 1019.73 1019.77 1019.69 1019.77
1018.21 1017.49 1016.81 1016.41 1016.13 1015.97 1015.77 1015.61 1015.65 1015.49 1015.21 1015.09 1015.17 1015.33 1015.45 1015.69 1016.01 1016.01 1015.97 1016.13 1016.33 1016.49 1016.57 1016.85 1017.25 1017.57 1017.65 1017.65 1017.61 1017.53 1017.69 1017.73 1017.85 1018.05 1018.13 1018.53 1018.77 1019.09 1019.29 1019.49 1019.69 1019.73 1019.69 1019.61 1019.61 1019.65 1019.77 1019.85 1019.89 1019.77 1019.77 1019.77
1018.73 1018.13 1017.37 1016.81 1016.45 1016.25 1016.09 1015.89 1015.93 1015.97 1015.69 1015.41 1015.49 1015.65 1015.77 1015.89 1015.97 1015.97 1015.89 1016.05 1016.29 1016.49 1016.73 1016.89 1017.09 1017.45 1017.65 1017.73 1017.73 1017.77 1017.93 1018.01 1018.17 1018.37 1018.61 1018.97 1019.29 1019.49 1019.49 1019.65 1019.85 1020.01 1020.01 1019.97 1019.77 1019.73 1019.85 1020.05 1020.05 1020.01 1019.97 1020.01
1019.37 1018.77 1018.13 1017.53 1016.89 1016.45 1016.17 1016.25 1016.21 1016.13 1016.01 1015.65 1015.41 1015.49 1015.65 1015.85 1015.93 1016.21 1016.37 1016.29 1016.29 1016.45 1016.61 1016.93 1017.13 1017.37 1017.61 1017.65 1017.73 1017.85 1018.05 1018.29 1018.45 1018.69 1018.97 1019.25 1019.57 1019.81 1019.81 1019.93 1020.13 1020.29 1020.33 1020.09 1019.97 1019.89 1019.89 1020.05 1020.17 1020.13 1020.13 1020.21
1019.69 1019.29 1018.93 1018.33 1017.73 1017.09 1016.65 1016.37 1016.21 1016.13 1016.09 1016.17 1015.85 1015.13 1015.25 1015.57 1015.77 1015.97 1016.09 1016.25 1016.45 1016.69 1016.73 1016.77 1016.89 1017.09 1017.29 1017.45 1017.61 1017.81 1017.93 1018.37 1018.69 1018.89 1019.13 1019.49 1019.81 1020.01 1020.05 1020.17 1020.29 1020.37 1020.37 1020.33 1020.21 1020.09 1020.01 1020.01 1020.13 1020.29 1020.33 1020.33
1020.05 1019.81 1019.33 1018.85 1018.13 1017.57 1017.21 1016.85 1016.45 1016.25 1016.17 1015.93 1015.97 1016.25 1015.81 1015.61 1015.93 1016.13 1016.21 1016.21 1016.33 1016.41 1016.73 1016.85 1016.93 1017.05 1017.25 1017.33 1017.53 1017.73 1017.85 1018.29 1018.73 1018.97 1019.21 1019.49 1019.89 1020.09 1020.25 1020.33 1020.41 1020.41 1020.41 1020.41 1020.41 1020.29 1020.29 1020.25 1020.17 1020.25 1020.41 1020.49
1020.65 1020.29 1019.93 1019.45 1018.97 1018.53 1017.89 1017.21 1016.81 1016.49 1016.29 1016.21 1016.05 1016.09 1016.49 1016.25 1016.05 1016.05 1016.05 1016.17 1016.37 1016.45 1016.57 1016.93 1017.25 1017.25 1017.29 1017.37 1017.53 1017.73 1017.97 1018.13 1018.57 1018.93 1019.21 1019.49 1019.77 1020.09 1020.33 1020.49 1020.53 1020.53 1020.49 1020.53 1020.49 1020.45 1020.37 1020.41 1020.45 1020.49 1020.57 1020.57
1021.21 1020.81 1020.53 1020.21 1019.93 1019.49 1018.69 1018.09 1017.41 1016.89 1016.57 1016.49 1016.53 1016.37 1016.53 1016.65 1016.69 1016.57 1016.13 1016.25 1016.77 1016.81 1016.69 1016.81 1017.09 1017.37 1017.41 1017.45 1017.53 1017.65 1017.93 1018.17 1018.37 1018.81 1019.25 1019.49 1019.69 1020.01 1020.25 1020.49 1020.69 1020.69 1020.61 1020.61 1020.61 1020.61 1020.57 1020.53 1020.57 1020.65 1020.65 1020.69
1021.93 1021.49 1021.25 1021.01 1020.65 1020.13 1019.61 1019.09 1018.41 1017.81 1017.45 1017.09 1016.85 1016.81 1016.73 1016.85 1016.93 1016.89 1016.65 1016.53 1016.77 1016.89 1016.81 1016.93 1017.09 1017.33 1017.65 1017.77 1017.73 1017.73 1017.97 1018.29 1018.41 1018.73 1018.97 1019.29 1019.65 1019.93 1020.21 1020.45 1020.73 1020.73 1020.73 1020.77 1020.77 1020.81 1020.77 1020.85 1020.85 1020.81 1020.81 1020.81
1022.45 1022.09 1021.81 1021.61 1021.25 1020.85 1020.41 1019.77 1019.33 1019.05 1018.77 1018.37 1017.89 1017.41 1017.21 1017.13 1017.13 1017.05 1016.93 1016.93 1017.01 1017.05 1016.97 1017.05 1017.25 1017.49 1017.65 1017.81 1017.97 1018.01 1018.21 1018.45 1018.65 1018.81 1019.17 1019.53 1019.81 1020.05 1020.13 1020.37 1020.65 1020.81 1020.77 1020.85 1020.97 1021.01 1021.01 1021.09 1021.05 1021.05 1021.05 1020.97
1023.25 1022.73 1022.33 1022.05 1021.89 1021.57 1021.09 1020.57 1020.09 1019.89 1019.81 1019.53 1019.05 1018.49 1018.13 1017.69 1017.41 1017.37 1017.37 1017.33 1017.21 1017.13 1017.13 1017.13 1017.33 1017.61 1017.77 1017.81 1017.97 1018.09 1018.29 1018.57 1018.77 1019.01 1019.29 1019.65 1019.97 1020.21 1020.33 1020.37 1020.61 1020.81 1020.97 1021.05 1021.25 1021.29 1021.21 1021.25 1021.21 1021.25 1021.21 1021.17
1023.73 1023.29 1022.93 1022.69 1022.45 1022.21 1021.81 1021.45 1021.09 1020.77 1020.53 1020.29 1019.89 1019.45 1019.05 1018.65 1018.29 1017.93 1017.69 1017.61 1017.53 1017.37 1017.25 1017.09 1017.21 1017.53 1017.93 1018.09 1018.17 1018.25 1018.41 1018.57 1018.81 1019.01 1019.29 1019.61 1019.85 1020.01 1020.17 1020.33 1020.61 1020.73 1020.81 1021.13 1021.37 1021.41 1021.49 1021.33 1021.33 1021.37 1021.33 1021.37
1024.29 1023.97 1023.53 1023.25 1022.97 1022.73 1022.53 1022.33 1022.05 1021.73 1021.29 1020.97 1020.69 1020.21 1019.77 1019.53 1019.25 1018.81 1018.41 1018.01 1017.77 1017.57 1017.53 1017.49 1017.41 1017.45 1017.69 1018.05 1018.37 1018.57 1018.73 1018.77 1018.97 1019.09 1019.29 1019.57 1019.69 1020.13 1020.33 1020.45 1020.65 1020.69 1020.81 1020.97 1021.13 1021.37 1021.53 1021.41 1021.45 1021.41 1021.33 1021.37
1024.89 1024.49 1024.13 1023.85 1023.61 1023.41 1023.01 1022.77 1022.69 1022.57 1022.25 1022.01 1021.57 1020.85 1020.57 1020.37 1020.05 1019.69 1019.25 1018.81 1018.33 1017.93 1017.73 1017.81 1017.73 1017.69 1017.73 1017.85 1018.25 1018.65 1018.93 1019.09 1019.21 1019.37 1019.53 1019.69 1019.65 1019.85 1020.29 1020.49 1020.69 1020.93 1020.93 1021.09 1021.13 1021.41 1021.49 1021.57 1021.53 1021.49 1021.49 1021.41
1025.41 1024.93 1024.53 1024.33 1024.09 1023.93 1023.61 1023.41 1023.37 1023.25 1023.01 1022.61 1022.17 1021.81 1021.33 1021.17 1020.89 1020.57 1020.09 1019.57 1019.09 1018.61 1018.17 1017.93 1017.97 1017.97 1017.81 1017.97 1018.09 1018.53 1018.89 1019.13 1019.33 1019.49 1019.69 1019.97 1020.05 1019.93 1020.05 1020.37 1020.49 1020.81 1021.01 1021.13 1021.29 1021.41 1021.45 1021.57 1021.65 1021.57 1021.61 1021.61
1026.01 1025.45 1024.97 1024.65 1024.45 1024.21 1023.97 1023.89 1023.85 1023.65 1023.37 1023.09 1022.85 1022.57 1022.29 1021.93 1021.61 1021.29 1020.97 1020.37 1019.85 1019.49 1019.09 1018.57 1018.21 1018.01 1018.09 1018.13 1018.17 1018.45 1018.81 1019.09 1019.33 1019.53 1019.65 1019.97 1020.25 1020.25 1020.21 1020.37 1020.45 1020.69 1021.21 1021.41 1021.45 1021.53 1021.61 1021.73 1021.77 1021.81 1021.77 1021.77
1026.41 1025.89 1025.45 1025.05 1024.61 1024.25 1024.17 1024.13 1024.01 1023.81 1023.57 1023.53 1023.29 1023.05 1022.89 1022.53 1022.21 1022.01 1021.77 1021.29 1020.77 1020.33 1019.97 1019.49 1018.97 1018.61 1018.33 1018.29 1018.45 1018.53 1018.73 1019.09 1019.37 1019.49 1019.57 1019.69 1020.13 1020.33 1020.37 1020.41 1020.65 1020.81 1021.17 1021.41 1021.57 1021.69 1021.81 1021.93 1021.89 1022.01 1021.97 1021.89
1026.49 1026.17 1025.77 1025.33 1024.81 1024.41 1024.33 1024.45 1024.41 1024.33 1024.33 1024.09 1023.81 1023.61 1023.45 1023.17 1022.89 1022.61 1022.33 1022.09 1021.69 1021.25 1020.85 1020.49 1020.01 1019.53 1019.05 1018.93 1018.73 1018.69 1018.89 1019.09 1019.21 1019.29 1019.45 1019.57 1019.73 1020.17 1020.53 1020.65 1020.69 1020.85 1020.97 1021.37 1021.57 1021.69 1021.73 1021.85 1021.93 1021.85 1021.89 1021.85
1027.01 1026.61 1026.29 1025.97 1025.81 1025.73 1025.45 1025.29 1025.17 1025.05 1024.89 1024.65 1024.45 1024.21 1023.93 1023.69 1023.37 1023.09 1022.81 1022.69 1022.49 1021.97 1021.57 1021.37 1021.01 1020.37 1019.89 1019.53 1019.29 1019.13 1018.93 1019.01 1019.29 1019.49 1019.45 1019.41 1019.45 1019.73 1020.21 1020.65 1020.73 1020.81 1020.77 1020.89 1021.21 1021.49 1021.49 1021.49 1021.65 1021.73 1021.77 1021.69
1027.85 1027.69 1027.57 1027.41 1027.05 1026.69 1026.21 1025.97 1025.77 1025.57 1025.29 1025.13 1025.01 1024.73 1024.37 1024.05 1023.77 1023.49 1023.41 1023.33 1023.17 1022.69 1022.17 1021.93 1021.77 1021.41 1020.85 1020.37 1020.05 1019.57 1019.37 1019.29 1019.37 1019.49 1019.61 1019.81 1019.97 1019.89 1019.69 1020.09 1020.45 1020.61 1020.61 1021.29 1021.13 1021.29 1021.33 1021.21 1021.13 1021.17 1021.33 1021.41
1028.25 1028.09 1027.81 1027.61 1027.37 1027.09 1026.85 1026.57 1026.41 1026.17 1025.97 1025.69 1025.49 1025.25 1024.97 1024.61 1024.41 1024.21 1023.93 1023.77 1023.61 1023.33 1022.85 1022.61 1022.53 1022.17 1021.69 1021.13 1020.77 1020.29 1019.89 1019.69 1019.57 1019.61 1019.65 1019.77 1019.65 1020.05 1020.33 1020.33 1020.49 1020.21 1019.97 1020.85 1022.05 1022.53 1022.49 1022.13 1021.45 1020.81 1021.05 1021.21
1028.45 1028.25 1028.05 1027.73 1027.49 1027.33 1027.09 1026.93 1026.77 1026.57 1026.33 1026.09 1025.77 1025.57 1025.41 1025.29 1025.21 1025.01 1024.69 1024.37 1024.13 1023.93 1023.65 1023.41 1023.37 1023.05 1022.45 1021.81 1021.37 1021.17 1020.85 1020.41 1020.17 1020.05 1020.05 1020.01 1019.89 1019.85 1020.09 1020.41 1020.69 1020.57 1020.05 1020.25 1021.57 1022.33 1022.57 1023.13 1023.21 1021.85 1020.69 1020.45
1028.57 1028.25 1028.05 1027.77 1027.57 1027.37 1027.17 1026.97 1026.89 1026.77 1026.57 1026.45 1026.25 1025.97 1025.73 1025.85 1025.69 1025.49 1025.25 1024.97 1024.81 1024.57 1024.25 1023.97 1023.73 1023.41 1022.97 1022.41 1021.89 1021.65 1021.57 1021.37 1021.05 1020.61 1020.33 1020.29 1020.33 1020.29 1019.89 1020.21 1020.53 1020.85 1020.69 1020.25 1019.77 1020.45 1022.81 1023.49 1023.45 1022.09 1021.17 1021.45
1028.65 1028.41 1028.21 1027.85 1027.49 1027.29 1027.17 1027.17 1026.97 1027.01 1027.01 1026.77 1026.57 1026.57 1026.45 1026.21 1026.01 1025.89 1025.73 1025.53 1025.29 1025.05 1024.69 1024.33 1024.01 1023.77 1023.41 1023.01 1022.53 1022.21 1022.17 1022.09 1021.65 1021.25 1020.93 1020.65 1020.57 1020.65 1020.57 1020.49 1020.61 1020.85 1021.01 1020.97 1020.73 1020.17 1019.85 1020.05 1019.69 1020.81 1021.81 1021.65
1028.77 1028.53 1028.37 1028.29 1028.17 1028.13 1028.05 1027.97 1027.77 1027.73 1027.53 1027.41 1027.21 1027.05 1026.77 1026.61 1026.45 1026.37 1026.21 1026.09 1025.85 1025.53 1025.13 1024.69 1024.33 1024.09 1023.81 1023.53 1023.17 1022.81 1022.57 1022.49 1022.41 1022.13 1021.65 1021.13 1020.73 1020.57 1020.65 1020.69 1020.73 1020.81 1021.09 1021.29 1021.17 1021.05 1021.05 1021.25 1021.33 1021.29 1021.33 1021.57
Wind_Speed
21 20 20 19 21 22 24 25 22 18 24 23 22 20 20 17 16 16 15 17 17 15 13 12 14 14 15 17 19 18 16 16 13 13 13 12 10 8 8 8 7 8 9 10 11 11 11 10 6 6 8 6
18 18 19 17 18 18 18 17 21 16 17 16 22 22 17 13 12 11 13 14 16 16 14 12 12 12 16 17 18 20 21 20 17 14 11 14 12 10 7 8 8 9 9 11 11 11 11 9 7 6 7 6
15 18 14 16 16 12 19 23 25 18 16 16 13 15 18 15 12 12 12 11 14 14 16 11 12 11 14 17 17 16 15 16 17 15 15 15 11 10 9 8 9 10 10 11 11 10 10 10 9 7 6 4
14 15 14 14 14 10 12 14 22 23 18 14 15 13 12 14 9 6 5 8 10 14 14 9 7 8 11 15 15 15 14 11 12 13 13 14 12 10 9 8 9 8 10 11 11 10 9 9 10 6 4 3
15 15 15 9 13 12 8 12 8 12 20 15 14 15 14 12 9 8 6 6 7 11 8 7 8 9 10 14 14 14 14 13 15 16 17 15 14 9 9 6 5 5 8 10 10 10 7 9 7 5 5 4
12 12 14 9 7 9 3 8 11 7 4 7 7 10 10 8 6 4 6 6 6 5 5 6 7 7 8 12 13 14 13 13 15 16 17 15 13 10 6 7 4 5 6 8 8 6 7 7 5 4 5 4
12 14 12 12 7 6 9 9 3 2 4 4 4 4 3 2 2 5 6 5 4 5 6 4 4 4 4 7 11 11 10 8 11 14 15 14 13 11 8 5 3 3 5 6 7 6 5 5 5 4 5 5
12 13 11 9 9 5 6 4 7 3 2 5 5 6 5 5 3 2 5 6 7 6 5 5 6 4 3 7 7 7 7 9 9 11 12 13 11 7 4 4 3 3 2 3 3 5 5 4 3 4 4 5
13 14 12 11 8 8 2 3 5 6 4 2 3 3 4 6 6 5 6 7 5 5 5 6 7 4 3 3 4 5 3 3 4 3 7 6 7 4 4 3 2 2 2 2 3 4 5 3 3 3 4 3
13 14 13 14 12 10 6 0 2 5 4 4 6 6 6 5 5 4 2 3 5 6 7 7 7 5 2 4 3 4 5 5 5 5 5 6 6 4 4 3 2 1 1 2 3 4 4 4 3 3 4 2
12 12 12 12 13 12 9 6 4 4 3 5 6 7 8 8 7 6 6 6 6 6 6 7 7 7 5 7 6 4 7 6 5 5 6 6 5 4 3 3 2 2 1 1 1 3 4 4 5 3 3 3
13 13 14 14 14 13 12 10 6 4 5 5 1 7 2 4 5 6 6 6 7 8 6 7 5 5 5 5 5 4 6 7 5 5 5 5 5 5 3 2 2 2 2 2 2 3 2 2 4 4 3 2
12 13 13 14 14 14 15 11 9 6 5 4 1 1 3 2 6 5 5 7 6 5 7 5 4 4 4 6 6 6 5 8 7 6 5 5 5 5 3 2 1 2 2 2 2 2 3 2 2 2 2 2
13 13 14 15 14 13 14 14 13 9 5 2 4 2 2 4 4 3 4 5 3 5 6 6 5 3 3 6 5 7 8 6 8 7 6 5 5 5 4 3 2 2 2 3 3 2 1 2 2 1 2 1
12 13 13 14 13 14 14 14 15 14 12 8 5 5 5 4 4 4 2 3 4 4 5 5 5 5 2 2 3 5 6 5 6 6 7 6 6 5 5 4 2 2 2 3 3 3 2 2 1 1 1 1
13 13 13 13 13 14 14 14 13 13 14 15 13 10 7 5 5 5 5 0 3 4 5 5 4 4 4 4 2 3 5 5 5 5 5 5 4 4 5 5 2 2 1 1 2 2 2 2 2 1 1 0
12 11 13 12 13 13 14 14 13 13 14 14 14 14 16 13 8 6 6 4 0 3 5 5 5 3 4 4 4 4 6 6 5 6 6 5 5 4 4 4 3 2 2 1 2 1 1 2 2 3 2 1
12 12 12 11 11 13 14 13 13 13 13 13 14 14 15 15 15 11 7 6 6 4 2 4 5 5 3 2 3 4 6 6 5 7 6 6 6 5 6 5 3 3 1 1 1 1 2 1 1 2 3 3
13 12 11 11 12 12 13 12 13 12 12 13 13 13 14 16 15 15 14 11 6 5 4 2 1 5 5 4 3 2 2 4 4 5 7 6 6 4 4 4 3 4 3 1 1 0 2 1 2 1 1 1
13 12 11 11 11 11 13 12 13 13 13 12 13 13 13 17 16 16 15 14 13 7 4 3 1 1 4 6 5 4 3 4 4 4 4 2 5 6 3 4 3 3 3 1 1 0 1 1 1 1 1 1
12 11 11 11 10 11 11 11 11 11 11 12 13 13 14 16 15 16 16 15 14 12 9 4 2 0 4 5 6 5 4 4 3 5 5 2 1 2 5 5 4 2 2 2 0 0 1 1 1 1 1 1
11 11 9 9 9 10 10 11 10 10 10 12 11 12 14 13 14 13 16 16 15 13 13 10 5 1 1 2 4 5 5 4 4 5 6 5 2 2 3 4 4 3 1 1 1 1 2 3 3 2 2 2
9 10 8 7 9 9 11 10 10 10 11 11 11 13 12 13 14 13 14 14 16 14 13 12 12 8 1 2 2 4 5 5 5 6 6 7 5 4 3 4 3 4 4 2 1 2 2 3 3 4 2 2
10 9 10 12 10 10 12 12 11 11 11 10 11 12 13 14 12 13 12 13 14 15 14 13 12 13 10 5 0 4 4 5 6 9 8 8 9 7 4 3 5 5 5 3 2 0 2 1 2 4 2 2
11 12 11 9 12 10 10 11 11 10 11 11 11 13 12 12 12 13 13 12 13 14 14 13 12 12 13 12 6 3 3 4 4 4 4 6 7 10 6 3 3 4 5 4 0 1 1 4 2 3 2 3
8 8 7 5 8 8 8 10 10 11 11 11 11 13 13 13 13 12 13 12 12 11 11 12 13 13 13 12 11 8 5 1 2 3 3 4 2 2 8 7 7 7 7 1 2 1 4 3 4 5 5 4
8 6 6 6 5 7 5 6 8 8 10 10 11 11 13 14 14 13 11 12 12 11 11 12 12 10 10 12 12 11 9 5 1 3 5 6 7 4 1 1 4 10 9 6 5 3 4 4 3 3 2 3
5 5 5 4 4 4 5 6 6 6 8 10 10 11 11 12 12 13 12 13 12 10 11 11 11 10 11 11 10 11 12 10 7 4 2 3 4 5 5 4 4 4 7 8 9 2 6 1 2 6 7 5
5 5 5 4 3 2 3 3 5 6 8 9 10 10 12 12 11 12 12 12 13 12 10 10 10 10 11 11 11 11 12 12 11 7 3 2 2 4 4 5 3 4 4 7 11 9 5 2 1 7 1 3
5 6 7 8 10 11 10 10 11 12 11 11 11 10 9 10 11 12 11 12 12 13 11 11 10 11 10 11 11 10 9 10 10 11 10 5 2 4 4 0 2 4 2 2 4 6 5 5 5 5 2 3
4 5 6 6 6 6 7 7 6 5 5 6 6 6 8 9 9 10 10 10 10 11 12 11 12 11 10 10 9 9 9 11 11 11 11 9 4 4 3 1 4 4 4 1 5 5 1 3 4 4 5 4
Wind_Direction
329 331 327 319 309 293 276 266 258 250 185 168 160 155 155 149 145 141 150 147 151 156 165 167 173 181 182 171 164 163 160 155 158 159 165 146 145 135 110 108 126 126 119 114 111 106 102 95 92 94 101 91
327 325 331 329 330 313 292 263 259 201 162 153 140 139 137 136 133 142 150 155 160 160 162 175 181 195 187 179 168 165 158 157 156 161 163 130 147 145 121 117 115 118 116 119 114 110 107 104 82 68 92 98
330 325 337 342 352 40 80 80 74 74 105 113 106 119 135 141 136 150 159 172 170 167 172 188 177 188 194 181 170 165 156 156 151 154 147 135 146 146 136 125 122 127 127 124 117 114 116 111 87 68 76 82
334 327 336 342 349 18 63 90 122 129 129 139 134 135 133 126 136 147 187 190 173 180 181 175 166 186 192 174 165 155 154 151 143 137 136 137 135 140 129 124 115 124 129 124 119 116 113 93 96 89 86 87
336 333 331 344 338 339 80 97 82 126 136 138 143 147 150 141 154 169 196 203 181 182 163 170 166 176 181 175 166 166 162 162 158 156 153 146 143 133 102 76 58 97 129 123 120 119 108 100 100 109 104 95
334 334 333 332 341 326 342 124 131 136 122 124 133 144 148 156 160 197 187 175 166 146 150 166 179 187 184 184 169 172 169 169 172 167 161 153 143 122 107 87 84 77 85 96 99 93 87 93 98 101 102 84
336 335 335 331 345 337 332 325 137 119 113 128 130 140 147 125 193 181 164 157 145 131 131 143 183 224 212 202 183 171 167 166 180 177 173 155 131 118 90 59 45 73 103 103 96 83 81 104 107 110 109 109
339 337 330 333 330 348 332 328 334 356 163 181 153 167 162 148 165 139 135 140 125 122 132 148 174 220 260 249 238 190 175 179 178 186 179 136 105 90 83 76 54 39 48 95 92 102 88 88 113 114 112 114
346 342 341 336 332 324 338 337 323 299 268 195 154 136 124 157 176 169 153 156 146 145 145 154 168 183 217 206 228 133 111 72 51 41 76 72 69 65 79 68 40 57 76 57 93 95 91 89 85 88 85 99
344 350 348 344 339 330 324 124 250 276 281 225 180 174 164 167 145 135 139 130 141 150 157 162 173 177 133 150 147 133 99 70 84 81 73 91 84 66 57 49 16 360 345 132 125 117 111 110 86 97 96 90
354 356 350 346 342 338 334 327 319 302 303 307 290 181 174 172 170 170 157 155 161 171 177 173 175 179 158 158 148 145 117 101 98 101 100 91 94 76 68 45 17 4 354 10 105 128 132 132 128 117 113 121
0 358 357 352 348 350 342 328 312 315 293 248 173 304 268 165 164 166 175 174 171 177 181 191 166 154 147 149 146 137 128 125 116 109 108 108 103 96 67 67 16 15 16 13 38 109 96 113 122 134 140 132
358 0 0 2 358 353 345 343 326 321 318 318 244 147 303 234 185 190 180 178 186 162 167 151 160 159 158 154 148 141 140 138 133 122 120 120 116 106 92 63 16 9 21 24 26 79 112 99 92 99 100 115
358 1 2 4 1 354 355 354 340 330 345 8 348 30 30 321 310 280 196 160 161 175 165 155 143 163 173 162 153 151 153 155 141 138 125 122 121 111 112 79 15 33 19 23 17 27 60 95 111 100 109 108
357 3 5 4 2 3 3 0 3 7 356 354 4 7 17 5 356 334 284 178 184 187 161 152 149 142 127 141 159 150 140 144 144 143 145 149 145 139 125 119 94 76 44 18 24 10 34 7 16 54 64 92
356 2 5 4 5 7 3 6 14 12 11 5 2 357 5 20 1 352 357 338 189 199 160 149 150 139 154 162 148 128 133 134 125 130 123 116 121 133 131 115 76 45 90 68 28 19 29 12 24 15 360 360
357 358 6 6 9 6 7 10 14 17 13 7 5 8 8 2 0 2 353 344 270 176 170 167 148 152 165 157 149 134 132 124 123 119 121 113 117 107 101 104 89 64 67 58 1 21 19 33 21 5 5 348
1 358 6 5 7 10 11 13 14 14 14 11 8 8 11 8 6 359 358 2 337 327 270 175 150 131 112 104 127 125 135 141 146 140 138 144 137 147 143 145 136 120 131 72 25 21 347 41 44 32 18 358
1 357 6 9 10 14 16 16 15 12 13 12 9 9 12 10 7 6 4 354 345 337 341 343 147 140 139 120 109 97 113 131 137 141 150 150 141 124 119 131 131 142 158 168 189 318 4 360 351 33 48 31
360 358 6 9 15 15 16 20 18 14 13 12 8 13 14 9 7 7 5 4 355 336 348 357 357 116 114 128 123 115 112 116 136 125 116 121 141 140 147 136 127 108 149 137 207 6 15 1 23 4 9 18
4 358 1 11 14 15 17 22 20 16 11 15 16 13 17 11 8 7 5 4 1 1 345 339 357 347 129 138 133 136 132 135 128 136 129 95 66 129 151 160 157 127 125 142 80 27 353 360 18 10 347 337
359 359 353 11 11 11 22 23 21 17 17 18 16 16 16 12 12 9 5 5 6 5 360 350 337 42 93 122 136 137 145 146 133 132 139 130 82 95 121 153 157 155 75 61 25 357 356 342 3 354 350 336
3 2 5 6 6 9 18 16 13 13 17 16 14 16 10 15 16 11 8 6 10 8 3 1 1 344 360 134 142 145 148 146 148 146 150 151 130 100 115 138 126 129 120 78 57 19 338 354 339 331 337 359
10 14 12 6 3 11 15 9 10 13 15 8 14 13 13 11 14 9 9 6 9 14 9 4 2 360 359 342 251 159 165 179 176 172 159 163 152 143 105 104 133 131 121 91 74 48 339 316 316 315 320 334
10 8 5 13 15 9 7 5 2 7 9 10 11 10 12 13 14 14 13 6 6 7 12 10 2 4 4 358 339 315 240 198 197 199 202 170 162 157 154 140 140 130 122 123 103 39 298 298 258 255 275 280
15 14 8 356 358 359 2 8 6 2 7 7 8 11 12 13 11 14 16 11 6 360 7 7 7 5 4 2 358 336 326 325 163 169 168 151 164 227 169 174 163 164 121 57 160 65 330 326 297 242 231 247
14 5 357 2 349 359 356 12 8 3 3 2 10 11 15 12 12 10 14 13 10 9 4 8 2 359 360 9 3 0 352 343 305 200 185 179 175 164 331 119 184 169 170 142 96 77 44 308 347 330 296 253
3 1 349 342 337 348 7 4 2 7 6 6 7 14 14 16 12 9 11 13 11 10 10 10 5 353 360 4 10 6 3 359 345 342 300 232 194 163 169 193 214 226 175 145 133 153 196 195 59 296 255 245
350 356 4 1 345 14 358 12 15 14 20 15 10 9 13 11 10 9 9 9 12 8 6 9 7 3 357 3 7 11 10 8 358 350 338 341 295 229 225 190 162 220 230 183 179 146 111 91 211 227 272 23
357 8 12 7 12 12 15 13 12 13 4 4 9 8 359 7 13 11 10 11 7 7 4 8 8 5 2 5 3 9 8 0 359 1 352 328 291 279 317 180 152 191 239 286 245 203 161 159 171 162 195 106
359 13 17 21 22 24 16 13 10 6 352 4 356 357 3 4 8 12 12 11 10 7 5 6 7 6 4 5 4 3 7 8 1 350 348 344 318 252 253 237 220 204 185 27 278 268 304 74 91 114 131 197